Pagina principale
METAR-TAF:

METAR-TAF

Aeroporti :

Aeroporto di Rieti

Rieti, Italia

latitudine: 42-25N, longitudine: 012-51E, altezza: 389 m

Osservazione

Il bollettino è stato emesso 1 ora e 21 minuti fa, alle 12:50 UTC
Vento 6 kt da sud, variando fra sud-est e sud/sud-ovest
Temperature 27°C
Umidità 54%
Pressione 1018 hPa
Visibilità 10 km o più
Poco nuvoloso ad un'altezza di 4800 ft

METAR: LIQN 271250Z 17006KT 140V210 9999 FEW048 27/17 Q1018

Ora: 16:11 (14:11 UTC)


TAF: mancante

Osservazioni e previsioni meteorologiche di più di 4000 aeroporti (messaggi METAR e TAF).

Le stazioni disponibili sono rappresentate dai dischi gialli e rossi sulla carta.

Puntare il mouse per vedere il nome della stazione.

Clicca sopra per visualizzare le osservazioni e previsioni meteorologiche.

Per cambiare la mappa : fare clic sui pulsanti verdi con una croce nera per ingrandire, il pulsante verde con un trattino per diminuire, o sulla freccia verde per le mappe adiacenti.


METAR-TAF: